Powrót do katalogu

FENGYUN 1C DEB

AktywnySSO
NORAD 37715·DEBRIS·🇨🇳 China

Wystrzelony May 10, 1999 z Taiyuan Satellite Launch Center

Loading…

Następne Przeloty (najbliższe 24 godziny)

TLE

Starzejące sięSource: Space-Track

Epoka: Sep 7, 2026, 18:42 UTC

1 37715U 99025EMG 26250.77931524  .00000513  00000-0  38509-3 0  9998
2 37715  98.9569 256.0374 0114917  92.9688  82.2070 13.95769455615569

Śledź FENGYUN 1C DEB w czasie rzeczywistym z AllMySat

Download on the App Store